Regional Weather Roundup
Issued by NWS

Home | Current Version | Previous Version | Graphics & Text | Print | Product List | Glossary On
Versions: 1 2 3 4 5 6 7 8 9 10 11 12 13 14 15 16 17 18 19 20 21 22 23 24 25 26 27 28 29 30 31 32 33 34 35 36 37 38 39 40 41 42 43 44 45 46 47 48 49 50
119
ASUS43 KIND 281210
RWRIN

WEATHER ROUNDUP FOR INDIANA
NATIONAL WEATHER SERVICE INDIANAPOLIS IN
800 AM EDT WED SEP 28 2016

NOTE: "FAIR" INDICATES FEW OR NO CLOUDS BELOW 12,000 FEET WITH NO
SIGNIFICANT WEATHER AND/OR OBSTRUCTIONS TO VISIBILITY.

* - STATION DOES NOT REPORT WEATHER SUCH AS PRECIPITATION OR FOG.

+ - STATION NOT QUALITY CONTROLLED BY THE NATIONAL WEATHER SERVICE.
    USE DATA WITH CAUTION...ESPECIALLY DEWPOINT AND RELATIVE
    HUMIDITY OBSERVATIONS.

INZ001>003-010>013-019-020-281300-
NORTHWEST INDIANA

CITY           SKY/WX    TMP DP  RH WIND       PRES   REMARKS
GARY /AIRPORT/ LGT RAIN  55  48  76 N12       29.80R
KNOX *+        CLOUDY    50  34  53 N5        29.77S
VALPARAISO     CLOUDY    53  49  86 VRB6      29.78R
6HR MIN TEMP:  49; 6HR MAX TEMP:  53; 6HR PCP: TRACE;


$$

LMZ046-743>745-281300-
SOUTHERN LAKE MICHIGAN

STATION/POSITION TIME  TEMP WIND        PRES
                       AIR  DIR/SP/G
                 (UTC) (F)  (DEG/KT/KT) (MB)
BURNS HARBOR     1140   58   30/ 15/ 18 1008.8R
MICHIGAN CITY    1140   55  360/ 19/ 22   N/A

$$

INZ004-005-014>016-021>024-281300-
NORTH CENTRAL INDIANA

CITY           SKY/WX    TMP DP  RH WIND       PRES   REMARKS
ELKHART        CLOUDY   N/A N/A N/A E3        29.80R
GOSHEN         CLOUDY    50  45  83 NE5       29.78R
6HR MIN TEMP:  48; 6HR MAX TEMP:  52; 6HR PCP: TRACE;

PERU/GRISSOM   MOCLDY    55  48  76 NE3       29.76S
ROCHESTER +    LGT RAIN  55  48  76 SW6       29.80R
SOUTH BEND     LGT RAIN  51  49  92 N5        29.80R
6HR MIN TEMP:  50; 6HR MAX TEMP:  52; 6HR PCP: TRACE;

WARSAW +       CLOUDY    50  43  76 CALM      29.79R

$$

INZ006>009-017-018-025>027-281300-
NORTHEAST INDIANA

CITY           SKY/WX    TMP DP  RH WIND       PRES   REMARKS
AUBURN +       CLOUDY    50  45  81 CALM      29.80R
FORT WAYNE     CLOUDY    53  48  83 W3        29.79R
6HR MIN TEMP:  50; 6HR MAX TEMP:  55;


$$

INZ028-029-035-036-043>045-051>053-281300-
WEST CENTRAL INDIANA

CITY           SKY/WX    TMP DP  RH WIND       PRES   REMARKS
GREENCASTLE +  CLOUDY    55  55 100 S3        29.77R
LAFAYETTE      CLOUDY    53  49  86 CALM      29.77R
6HR MIN TEMP:  50; 6HR MAX TEMP:  55; 6HR PCP: TRACE;

TERRE HAUTE    CLOUDY    59  53  80 CALM      29.77R
6HR MIN TEMP:  59; 6HR MAX TEMP:  63;


$$

INZ030>032-037>040-046>048-054>057-064-065-281300-
CENTRAL INDIANA

CITY           SKY/WX    TMP DP  RH WIND       PRES   REMARKS
COLUMBUS       LGT RAIN  55  55 100 SE5       29.77F
FRANKFORT +    MOCLDY    56  52  89 CALM      29.79R
INDIANAPOLIS   LGT RAIN  58  56  93 E10       29.77S
6HR MIN TEMP:  58; 6HR MAX TEMP:  61; 6HR PCP:  0.06;

-EAGLE CREEK   LGT RAIN  58  55  90 SE8       29.75F
6HR MIN TEMP:  58; 6HR MAX TEMP:  61; 6HR PCP:  0.06;

MARION +       LGT RAIN  56  51  84 NW6       29.81R
MT COMFORT *+  CLOUDY    55  54  94 SE3       29.81R
SHELBYVILLE    LGT RAIN  57  54  89 E3        29.80R
6HR MIN TEMP:  57; 6HR MAX TEMP:  61; 6HR PCP:  0.16;

ZIONSVILLE +   CLOUDY    54  52  95 CALM      29.78S
6HR MIN TEMP:  54; 6HR MAX TEMP:  56; 6HR PCP:  0.01;


$$

INZ033-034-041-042-049-050-058-059-281300-
EAST CENTRAL INDIANA

CITY           SKY/WX    TMP DP  RH WIND       PRES   REMARKS
MUNCIE         CLOUDY    58  54  86 SE8       29.78S
6HR MIN TEMP:  57; 6HR MAX TEMP:  61; 6HR PCP:  0.01;


$$

INZ060-061-067>069-081>083-085>088-281300-
SOUTHWEST INDIANA

CITY           SKY/WX    TMP DP  RH WIND       PRES   REMARKS
EVANSVILLE     MOCLDY    60  52  74 SW9       29.81S
6HR MIN TEMP:  58; 6HR MAX TEMP:  60;

HUNTINGBURG *+   N/A     57  48  72 S6        29.81S
6HR MIN TEMP:  57; 6HR MAX TEMP:  61;


$$

INZ062-063-066-070>080-084-089>092-281300-
SOUTH CENTRAL AND SOUTHEAST INDIANA

CITY           SKY/WX    TMP DP  RH WIND       PRES   REMARKS
BLOOMINGTON    CLOUDY    59  52  77 SW9       29.77S
6HR MIN TEMP:  59; 6HR MAX TEMP:  61;


$$





USA.gov is the U.S. government's official web portal to all federal, state and local government web resources and services.